QPF
0.00 0.00 0.00 0.00 0.00 0.00 0.00 0.00 0.00 0.00 0.00 0.00 0.00 0.00 0.00 0.00 0.00 0.01 0.01 0.02 0.02 0.03 0.03 0.02 0.02 0.02 0.03 0.04 0.06 0.07 0.08 0.09 0.08 0.10 0.15 0.15 0.13 0.10 0.07 0.04 0.03 0.03 0.03 0.03
0.00 0.00 0.00 0.00 0.00 0.00 0.00 0.00 0.00 0.00 0.00 0.00 0.00 0.00 0.00 0.00 0.00 0.01 0.03 0.03 0.04 0.04 0.03 0.02 0.02 0.01 0.02 0.03 0.05 0.05 0.06 0.06 0.07 0.08 0.10 0.09 0.07 0.05 0.03 0.03 0.03 0.02 0.03 0.04
0.00 0.00 0.00 0.00 0.00 0.00 0.00 0.00 0.00 0.00 0.00 0.00 0.00 0.01 0.01 0.00 0.00 0.01 0.02 0.03 0.04 0.04 0.03 0.03 0.02 0.02 0.03 0.03 0.05 0.07 0.07 0.06 0.05 0.05 0.07 0.07 0.06 0.04 0.03 0.03 0.02 0.02 0.03 0.04
0.00 0.00 0.00 0.00 0.00 0.00 0.00 0.00 0.00 0.00 0.01 0.01 0.01 0.01 0.00 0.00 0.00 0.01 0.02 0.03 0.03 0.03 0.02 0.01 0.02 0.02 0.04 0.05 0.06 0.07 0.07 0.07 0.06 0.06 0.06 0.05 0.04 0.03 0.02 0.03 0.03 0.03 0.04 0.04
0.00 0.00 0.00 0.00 0.00 0.00 0.00 0.00 0.00 0.00 0.00 0.00 0.00 0.00 0.00 0.01 0.01 0.01 0.01 0.01 0.01 0.01 0.01 0.01 0.02 0.02 0.03 0.04 0.06 0.06 0.05 0.05 0.05 0.06 0.04 0.03 0.02 0.02 0.02 0.03 0.04 0.03 0.03 0.04
0.00 0.00 0.00 0.00 0.00 0.00 0.00 0.00 0.00 0.00 0.00 0.00 0.00 0.01 0.01 0.00 0.00 0.00 0.00 0.01 0.01 0.01 0.01 0.01 0.02 0.02 0.03 0.04 0.04 0.05 0.04 0.04 0.05 0.04 0.03 0.02 0.01 0.01 0.01 0.02 0.03 0.04 0.04 0.04
0.00 0.00 0.01 0.00 0.00 0.00 0.01 0.01 0.00 0.00 0.00 0.00 0.00 0.01 0.00 0.00 0.00 0.01 0.00 0.01 0.01 0.01 0.01 0.01 0.02 0.02 0.03 0.04 0.02 0.02 0.02 0.01 0.02 0.02 0.02 0.02 0.01 0.02 0.02 0.02 0.03 0.03 0.02 0.02
0.01 0.01 0.01 0.01 0.00 0.00 0.00 0.00 0.00 0.00 0.00 0.00 0.00 0.00 0.00 0.00 0.00 0.00 0.00 0.01 0.01 0.01 0.00 0.01 0.02 0.04 0.05 0.03 0.02 0.01 0.02 0.02 0.03 0.03 0.03 0.02 0.02 0.02 0.02 0.02 0.03 0.03 0.02 0.02
0.00 0.01 0.01 0.01 0.01 0.01 0.00 0.00 0.00 0.00 0.00 0.00 0.00 0.01 0.01 0.01 0.00 0.00 0.01 0.01 0.00 0.00 0.00 0.02 0.03 0.03 0.05 0.03 0.02 0.02 0.02 0.02 0.02 0.03 0.04 0.05 0.04 0.03 0.02 0.02 0.02 0.03 0.03 0.03
0.00 0.01 0.02 0.02 0.02 0.01 0.00 0.00 0.00 0.00 0.00 0.01 0.01 0.01 0.02 0.01 0.01 0.01 0.01 0.01 0.01 0.01 0.01 0.02 0.03 0.03 0.03 0.04 0.03 0.03 0.02 0.02 0.03 0.02 0.04 0.05 0.06 0.05 0.04 0.03 0.03 0.03 0.04 0.04
0.02 0.03 0.03 0.02 0.02 0.01 0.00 0.00 0.00 0.00 0.00 0.01 0.01 0.01 0.01 0.01 0.01 0.01 0.01 0.01 0.01 0.01 0.01 0.02 0.03 0.03 0.03 0.04 0.04 0.03 0.03 0.03 0.04 0.04 0.06 0.07 0.08 0.08 0.08 0.08 0.06 0.05 0.06 0.07
0.03 0.02 0.02 0.02 0.01 0.01 0.01 0.00 0.00 0.00 0.00 0.00 0.01 0.01 0.00 0.00 0.01 0.01 0.01 0.01 0.01 0.01 0.02 0.02 0.03 0.04 0.04 0.05 0.06 0.06 0.05 0.04 0.04 0.06 0.09 0.11 0.11 0.10 0.09 0.08 0.06 0.05 0.05 0.04
0.01 0.02 0.02 0.01 0.01 0.01 0.01 0.01 0.01 0.01 0.00 0.00 0.01 0.01 0.01 0.01 0.01 0.01 0.01 0.01 0.01 0.02 0.02 0.02 0.02 0.03 0.06 0.07 0.05 0.06 0.06 0.06 0.06 0.07 0.08 0.08 0.07 0.07 0.06 0.05 0.05 0.05 0.05 0.04
0.01 0.01 0.01 0.01 0.01 0.01 0.01 0.02 0.02 0.01 0.01 0.01 0.01 0.01 0.01 0.01 0.01 0.01 0.01 0.01 0.02 0.02 0.02 0.01 0.01 0.02 0.03 0.04 0.04 0.05 0.06 0.08 0.09 0.09 0.09 0.08 0.06 0.06 0.05 0.04 0.04 0.03 0.03 0.03
0.01 0.02 0.01 0.01 0.01 0.01 0.02 0.03 0.03 0.03 0.02 0.02 0.02 0.01 0.01 0.01 0.01 0.02 0.02 0.01 0.02 0.02 0.01 0.01 0.01 0.01 0.01 0.01 0.02 0.04 0.06 0.07 0.07 0.08 0.08 0.08 0.07 0.06 0.05 0.03 0.02 0.02 0.02 0.02
0.01 0.01 0.01 0.01 0.01 0.01 0.01 0.01 0.03 0.03 0.02 0.02 0.03 0.02 0.02 0.02 0.03 0.02 0.02 0.02 0.02 0.02 0.01 0.01 0.01 0.01 0.01 0.01 0.02 0.02 0.03 0.04 0.05 0.05 0.05 0.04 0.03 0.03 0.02 0.02 0.01 0.02 0.02 0.01
0.01 0.01 0.01 0.01 0.01 0.01 0.01 0.01 0.01 0.01 0.02 0.02 0.02 0.02 0.02 0.02 0.03 0.03 0.03 0.03 0.03 0.03 0.02 0.01 0.01 0.02 0.03 0.04 0.03 0.02 0.03 0.03 0.02 0.02 0.02 0.02 0.02 0.02 0.02 0.01 0.01 0.01 0.01 0.01
0.01 0.01 0.01 0.01 0.01 0.01 0.00 0.00 0.00 0.01 0.01 0.01 0.02 0.03 0.02 0.03 0.03 0.03 0.03 0.03 0.03 0.02 0.01 0.01 0.01 0.01 0.01 0.02 0.03 0.03 0.03 0.02 0.01 0.01 0.02 0.02 0.02 0.01 0.01 0.02 0.01 0.01 0.01 0.01
0.01 0.01 0.01 0.01 0.00 0.00 0.00 0.00 0.01 0.01 0.01 0.01 0.02 0.03 0.03 0.03 0.03 0.03 0.04 0.04 0.02 0.02 0.01 0.01 0.01 0.01 0.01 0.01 0.01 0.02 0.02 0.01 0.01 0.01 0.01 0.01 0.01 0.02 0.02 0.02 0.02 0.01 0.01 0.01
0.01 0.01 0.01 0.00 0.00 0.00 0.00 0.00 0.00 0.01 0.01 0.01 0.02 0.02 0.03 0.03 0.02 0.02 0.02 0.02 0.01 0.01 0.02 0.01 0.01 0.01 0.01 0.01 0.01 0.01 0.02 0.02 0.02 0.01 0.01 0.02 0.02 0.02 0.03 0.02 0.02 0.02 0.02 0.02
0.00 0.00 0.00 0.00 0.01 0.00 0.00 0.00 0.00 0.01 0.01 0.01 0.02 0.03 0.03 0.03 0.03 0.02 0.02 0.02 0.02 0.02 0.01 0.01 0.01 0.02 0.01 0.02 0.02 0.01 0.01 0.02 0.02 0.02 0.02 0.03 0.03 0.03 0.03 0.03 0.03 0.03 0.02 0.02
0.01 0.01 0.01 0.01 0.01 0.00 0.00 0.00 0.00 0.00 0.01 0.01 0.02 0.03 0.03 0.04 0.04 0.04 0.03 0.03 0.02 0.01 0.01 0.01 0.02 0.02 0.02 0.02 0.02 0.02 0.01 0.02 0.03 0.03 0.03 0.04 0.05 0.05 0.03 0.03 0.04 0.03 0.03 0.03
0.01 0.01 0.01 0.01 0.01 0.01 0.00 0.00 0.01 0.01 0.01 0.01 0.01 0.01 0.02 0.02 0.03 0.04 0.03 0.01 0.01 0.01 0.01 0.01 0.01 0.01 0.01 0.01 0.01 0.02 0.02 0.02 0.03 0.03 0.03 0.04 0.05 0.05 0.05 0.04 0.04 0.04 0.04 0.04
0.01 0.01 0.01 0.01 0.01 0.01 0.01 0.01 0.01 0.01 0.01 0.01 0.01 0.01 0.01 0.01 0.01 0.01 0.01 0.01 0.01 0.01 0.01 0.01 0.01 0.01 0.01 0.01 0.02 0.01 0.02 0.02 0.02 0.02 0.03 0.03 0.02 0.03 0.03 0.03 0.03 0.03 0.04 0.04
0.01 0.01 0.01 0.01 0.02 0.01 0.01 0.01 0.01 0.01 0.01 0.01 0.01 0.01 0.01 0.01 0.01 0.01 0.01 0.01 0.01 0.01 0.01 0.01 0.01 0.01 0.01 0.01 0.01 0.01 0.01 0.02 0.02 0.02 0.02 0.02 0.02 0.01 0.02 0.02 0.02 0.02 0.03 0.03
0.01 0.01 0.01 0.01 0.01 0.01 0.01 0.01 0.02 0.02 0.02 0.02 0.02 0.01 0.01 0.01 0.02 0.01 0.01 0.01 0.01 0.01 0.01 0.00 0.01 0.01 0.00 0.00 0.00 0.00 0.01 0.01 0.01 0.01 0.01 0.02 0.01 0.01 0.02 0.03 0.02 0.02 0.04 0.03
0.01 0.01 0.02 0.02 0.01 0.02 0.01 0.01 0.02 0.02 0.03 0.03 0.02 0.02 0.02 0.01 0.01 0.01 0.01 0.01 0.01 0.01 0.01 0.01 0.01 0.01 0.01 0.00 0.00 0.00 0.01 0.01 0.01 0.01 0.01 0.01 0.01 0.01 0.01 0.02 0.02 0.02 0.03 0.02
MSLP
1011.69 1011.88 1012.05 1012.19 1012.31 1012.39 1012.40 1012.31 1012.09 1011.71 1011.19 1010.53 1009.77 1008.97 1008.17 1007.44 1006.82 1006.34 1006.00 1005.81 1005.74 1005.76 1005.85 1005.99 1006.16 1006.36 1006.60 1006.88 1007.20 1007.56 1007.96 1008.39 1008.81 1009.23 1009.61 1009.95 1010.25 1010.51 1010.74 1010.94 1011.13 1011.31 1011.49 1011.65
1012.03 1012.17 1012.25 1012.27 1012.26 1012.21 1012.12 1011.97 1011.72 1011.38 1010.92 1010.35 1009.69 1008.97 1008.23 1007.51 1006.87 1006.32 1005.88 1005.57 1005.37 1005.27 1005.26 1005.31 1005.43 1005.59 1005.80 1006.06 1006.36 1006.71 1007.10 1007.51 1007.92 1008.33 1008.72 1009.07 1009.38 1009.65 1009.88 1010.08 1010.25 1010.42 1010.57 1010.71
1012.29 1012.39 1012.38 1012.31 1012.19 1012.04 1011.86 1011.65 1011.40 1011.08 1010.68 1010.18 1009.60 1008.95 1008.26 1007.56 1006.88 1006.26 1005.74 1005.31 1005.00 1004.80 1004.69 1004.68 1004.73 1004.86 1005.04 1005.28 1005.57 1005.90 1006.27 1006.66 1007.06 1007.46 1007.84 1008.19 1008.51 1008.77 1009.00 1009.18 1009.33 1009.46 1009.58 1009.69
1012.43 1012.48 1012.41 1012.27 1012.07 1011.85 1011.63 1011.39 1011.14 1010.84 1010.49 1010.06 1009.54 1008.94 1008.27 1007.57 1006.86 1006.18 1005.57 1005.05 1004.63 1004.33 1004.15 1004.07 1004.08 1004.17 1004.33 1004.55 1004.82 1005.13 1005.47 1005.84 1006.23 1006.61 1006.99 1007.34 1007.65 1007.91 1008.13 1008.30 1008.43 1008.53 1008.61 1008.69
1012.40 1012.42 1012.32 1012.14 1011.91 1011.66 1011.42 1011.18 1010.94 1010.68 1010.36 1009.97 1009.49 1008.92 1008.26 1007.54 1006.79 1006.05 1005.36 1004.75 1004.25 1003.87 1003.62 1003.48 1003.45 1003.51 1003.65 1003.84 1004.09 1004.38 1004.70 1005.06 1005.42 1005.80 1006.17 1006.52 1006.84 1007.11 1007.33 1007.50 1007.61 1007.70 1007.76 1007.82
1012.18 1012.19 1012.09 1011.91 1011.69 1011.46 1011.23 1011.01 1010.80 1010.56 1010.27 1009.91 1009.44 1008.87 1008.20 1007.45 1006.65 1005.85 1005.09 1004.41 1003.85 1003.41 1003.10 1002.92 1002.85 1002.88 1003.00 1003.17 1003.40 1003.67 1003.97 1004.31 1004.67 1005.04 1005.42 1005.78 1006.12 1006.41 1006.65 1006.84 1006.96 1007.05 1007.11 1007.17
1011.79 1011.81 1011.74 1011.60 1011.42 1011.24 1011.05 1010.87 1010.69 1010.47 1010.19 1009.83 1009.35 1008.76 1008.05 1007.26 1006.42 1005.57 1004.76 1004.03 1003.42 1002.94 1002.60 1002.39 1002.30 1002.32 1002.41 1002.57 1002.78 1003.03 1003.32 1003.64 1003.99 1004.37 1004.76 1005.15 1005.52 1005.86 1006.14 1006.36 1006.52 1006.63 1006.70 1006.78
1011.29 1011.33 1011.30 1011.23 1011.12 1011.00 1010.87 1010.74 1010.58 1010.37 1010.09 1009.70 1009.19 1008.56 1007.82 1006.99 1006.11 1005.22 1004.38 1003.63 1003.00 1002.51 1002.15 1001.94 1001.84 1001.85 1001.93 1002.07 1002.27 1002.50 1002.77 1003.09 1003.44 1003.82 1004.23 1004.66 1005.07 1005.45 1005.79 1006.07 1006.28 1006.44 1006.56 1006.66
1010.73 1010.80 1010.83 1010.82 1010.79 1010.74 1010.68 1010.58 1010.43 1010.22 1009.91 1009.49 1008.94 1008.27 1007.48 1006.62 1005.72 1004.83 1003.99 1003.25 1002.63 1002.15 1001.82 1001.62 1001.53 1001.53 1001.61 1001.74 1001.91 1002.13 1002.38 1002.68 1003.02 1003.41 1003.84 1004.30 1004.75 1005.19 1005.59 1005.94 1006.22 1006.44 1006.61 1006.75
1010.18 1010.28 1010.36 1010.42 1010.46 1010.47 1010.44 1010.36 1010.22 1009.98 1009.64 1009.17 1008.58 1007.87 1007.06 1006.19 1005.30 1004.43 1003.63 1002.93 1002.37 1001.93 1001.64 1001.47 1001.40 1001.41 1001.48 1001.60 1001.75 1001.94 1002.17 1002.44 1002.77 1003.15 1003.58 1004.06 1004.54 1005.03 1005.49 1005.90 1006.25 1006.54 1006.77 1006.96
1009.72 1009.83 1009.95 1010.05 1010.13 1010.17 1010.16 1010.08 1009.91 1009.64 1009.26 1008.75 1008.12 1007.39 1006.58 1005.73 1004.89 1004.08 1003.35 1002.73 1002.24 1001.88 1001.65 1001.52 1001.47 1001.49 1001.56 1001.65 1001.77 1001.92 1002.11 1002.34 1002.64 1003.00 1003.41 1003.89 1004.39 1004.91 1005.41 1005.88 1006.29 1006.64 1006.93 1007.16
1009.38 1009.49 1009.61 1009.73 1009.81 1009.85 1009.83 1009.72 1009.52 1009.20 1008.77 1008.23 1007.58 1006.86 1006.08 1005.29 1004.52 1003.81 1003.18 1002.67 1002.28 1002.00 1001.83 1001.74 1001.72 1001.74 1001.78 1001.85 1001.92 1002.02 1002.16 1002.34 1002.58 1002.90 1003.29 1003.74 1004.23 1004.76 1005.28 1005.78 1006.24 1006.65 1006.99 1007.27
1009.17 1009.26 1009.36 1009.46 1009.52 1009.53 1009.47 1009.31 1009.05 1008.69 1008.22 1007.66 1007.02 1006.32 1005.60 1004.89 1004.23 1003.63 1003.13 1002.72 1002.43 1002.23 1002.11 1002.06 1002.05 1002.05 1002.07 1002.09 1002.12 1002.16 1002.23 1002.35 1002.54 1002.80 1003.14 1003.55 1004.03 1004.54 1005.06 1005.58 1006.07 1006.51 1006.89 1007.22
1009.08 1009.13 1009.20 1009.26 1009.27 1009.22 1009.10 1008.88 1008.57 1008.16 1007.66 1007.09 1006.47 1005.82 1005.18 1004.57 1004.01 1003.53 1003.14 1002.84 1002.62 1002.49 1002.41 1002.37 1002.34 1002.33 1002.30 1002.28 1002.25 1002.23 1002.25 1002.32 1002.45 1002.66 1002.95 1003.32 1003.75 1004.24 1004.75 1005.27 1005.77 1006.24 1006.66 1007.02
1009.08 1009.10 1009.13 1009.13 1009.08 1008.96 1008.76 1008.48 1008.11 1007.66 1007.14 1006.58 1005.99 1005.40 1004.84 1004.32 1003.86 1003.48 1003.17 1002.95 1002.78 1002.68 1002.60 1002.55 1002.50 1002.45 1002.38 1002.31 1002.24 1002.19 1002.17 1002.19 1002.29 1002.46 1002.71 1003.04 1003.44 1003.89 1004.39 1004.89 1005.39 1005.87 1006.32 1006.71
1009.15 1009.15 1009.13 1009.08 1008.96 1008.78 1008.51 1008.16 1007.74 1007.25 1006.72 1006.17 1005.61 1005.07 1004.57 1004.13 1003.74 1003.43 1003.17 1002.98 1002.83 1002.71 1002.62 1002.53 1002.44 1002.35 1002.25 1002.15 1002.06 1002.00 1001.97 1001.99 1002.08 1002.24 1002.47 1002.78 1003.15 1003.57 1004.03 1004.51 1005.00 1005.48 1005.93 1006.35
1009.26 1009.25 1009.21 1009.11 1008.94 1008.69 1008.37 1007.96 1007.49 1006.98 1006.44 1005.89 1005.36 1004.85 1004.39 1003.98 1003.63 1003.33 1003.09 1002.88 1002.71 1002.56 1002.42 1002.29 1002.16 1002.04 1001.92 1001.82 1001.74 1001.70 1001.71 1001.76 1001.88 1002.05 1002.29 1002.59 1002.94 1003.33 1003.76 1004.21 1004.67 1005.13 1005.57 1006.00
1009.40 1009.40 1009.34 1009.22 1009.01 1008.71 1008.34 1007.89 1007.38 1006.85 1006.29 1005.74 1005.21 1004.71 1004.26 1003.86 1003.50 1003.18 1002.90 1002.65 1002.43 1002.22 1002.03 1001.86 1001.70 1001.57 1001.47 1001.40 1001.38 1001.40 1001.47 1001.59 1001.76 1001.97 1002.23 1002.53 1002.87 1003.23 1003.61 1004.01 1004.43 1004.85 1005.27 1005.68
1009.56 1009.57 1009.52 1009.37 1009.14 1008.81 1008.40 1007.91 1007.38 1006.82 1006.24 1005.68 1005.14 1004.63 1004.16 1003.72 1003.33 1002.96 1002.63 1002.32 1002.03 1001.77 1001.54 1001.34 1001.19 1001.08 1001.02 1001.02 1001.08 1001.19 1001.35 1001.56 1001.80 1002.07 1002.36 1002.66 1002.97 1003.28 1003.61 1003.94 1004.29 1004.64 1005.00 1005.37
1009.71 1009.74 1009.69 1009.53 1009.28 1008.92 1008.48 1007.97 1007.41 1006.82 1006.23 1005.64 1005.07 1004.53 1004.03 1003.55 1003.11 1002.69 1002.30 1001.94 1001.61 1001.32 1001.07 1000.88 1000.75 1000.69 1000.71 1000.80 1000.96 1001.18 1001.44 1001.73 1002.04 1002.35 1002.65 1002.93 1003.20 1003.45 1003.70 1003.94 1004.20 1004.46 1004.74 1005.03
1009.82 1009.86 1009.80 1009.63 1009.35 1008.97 1008.50 1007.96 1007.38 1006.77 1006.15 1005.54 1004.95 1004.38 1003.85 1003.33 1002.85 1002.39 1001.97 1001.58 1001.24 1000.95 1000.73 1000.58 1000.51 1000.53 1000.65 1000.84 1001.10 1001.41 1001.75 1002.10 1002.45 1002.77 1003.05 1003.29 1003.50 1003.66 1003.81 1003.95 1004.09 1004.25 1004.42 1004.62
1009.87 1009.89 1009.79 1009.59 1009.28 1008.87 1008.37 1007.81 1007.21 1006.58 1005.95 1005.33 1004.72 1004.14 1003.58 1003.05 1002.56 1002.10 1001.68 1001.31 1000.99 1000.75 1000.59 1000.51 1000.53 1000.65 1000.85 1001.14 1001.48 1001.85 1002.24 1002.61 1002.95 1003.24 1003.48 1003.65 1003.76 1003.83 1003.86 1003.89 1003.91 1003.95 1004.02 1004.12
1009.78 1009.75 1009.61 1009.36 1009.01 1008.56 1008.04 1007.46 1006.85 1006.21 1005.58 1004.95 1004.35 1003.77 1003.23 1002.72 1002.25 1001.83 1001.46 1001.15 1000.91 1000.75 1000.68 1000.70 1000.81 1001.02 1001.30 1001.65 1002.03 1002.43 1002.81 1003.16 1003.45 1003.67 1003.81 1003.89 1003.90 1003.86 1003.79 1003.70 1003.63 1003.57 1003.54 1003.54
1009.53 1009.42 1009.22 1008.91 1008.51 1008.03 1007.49 1006.90 1006.28 1005.65 1005.03 1004.43 1003.86 1003.32 1002.82 1002.36 1001.96 1001.61 1001.33 1001.11 1000.97 1000.92 1000.96 1001.08 1001.29 1001.57 1001.90 1002.27 1002.66 1003.02 1003.35 1003.63 1003.83 1003.95 1003.99 1003.95 1003.86 1003.72 1003.57 1003.40 1003.25 1003.12 1003.02 1002.95
1009.09 1008.90 1008.62 1008.26 1007.82 1007.31 1006.76 1006.17 1005.57 1004.97 1004.38 1003.82 1003.30 1002.83 1002.40 1002.03 1001.71 1001.47 1001.29 1001.19 1001.17 1001.23 1001.37 1001.58 1001.86 1002.18 1002.53 1002.89 1003.23 1003.53 1003.77 1003.93 1004.02 1004.03 1003.96 1003.83 1003.65 1003.45 1003.24 1003.03 1002.85 1002.69 1002.56 1002.45
1008.47 1008.21 1007.88 1007.48 1007.01 1006.50 1005.95 1005.39 1004.82 1004.27 1003.74 1003.24 1002.79 1002.39 1002.05 1001.77 1001.56 1001.42 1001.35 1001.36 1001.45 1001.61 1001.83 1002.11 1002.42 1002.75 1003.08 1003.38 1003.65 1003.85 1003.98 1004.03 1004.01 1003.91 1003.75 1003.55 1003.33 1003.10 1002.88 1002.69 1002.52 1002.37 1002.25 1002.14
1007.74 1007.44 1007.08 1006.66 1006.21 1005.72 1005.21 1004.69 1004.18 1003.69 1003.22 1002.80 1002.42 1002.10 1001.85 1001.65 1001.53 1001.49 1001.51 1001.61 1001.78 1002.00 1002.27 1002.57 1002.88 1003.19 1003.47 1003.70 1003.88 1003.98 1004.00 1003.95 1003.84 1003.66 1003.46 1003.23 1003.01 1002.80 1002.62 1002.48 1002.36 1002.27 1002.19 1002.09
Thickness
5788 5796 5795 5792 5792 5794 5790 5793 5789 5794 5795 5800 5800 5799 5798 5797 5795 5792 5790 5789 5788 5786 5784 5781 5779 5777 5774 5773 5770 5767 5762 5759 5756 5754 5751 5747 5743 5739 5736 5734 5735 5734 5733 5732
5771 5783 5785 5781 5786 5788 5787 5789 5789 5788 5787 5799 5797 5794 5790 5788 5785 5782 5781 5781 5781 5779 5776 5773 5771 5769 5767 5765 5763 5760 5755 5751 5749 5746 5744 5740 5736 5734 5732 5731 5729 5728 5727 5726
5759 5773 5770 5763 5779 5781 5781 5787 5784 5777 5782 5786 5781 5778 5779 5780 5779 5776 5776 5774 5773 5771 5769 5766 5764 5762 5759 5757 5755 5751 5747 5744 5742 5740 5737 5734 5731 5729 5727 5727 5725 5723 5721 5719
5755 5752 5735 5768 5787 5783 5777 5778 5782 5779 5778 5777 5774 5773 5776 5777 5774 5770 5769 5767 5766 5766 5764 5763 5761 5757 5753 5750 5746 5742 5739 5736 5735 5733 5730 5727 5724 5722 5721 5721 5719 5716 5715 5713
5745 5742 5748 5762 5768 5770 5764 5762 5772 5770 5768 5768 5769 5767 5767 5768 5766 5763 5762 5761 5759 5760 5759 5756 5753 5750 5746 5742 5738 5734 5731 5729 5727 5725 5722 5720 5717 5716 5715 5713 5711 5709 5708 5706
5735 5730 5733 5752 5764 5769 5760 5747 5762 5762 5759 5758 5756 5751 5753 5757 5757 5755 5754 5752 5751 5750 5749 5745 5743 5741 5737 5733 5730 5726 5724 5722 5720 5718 5716 5713 5711 5709 5709 5707 5704 5703 5701 5699
5727 5727 5739 5749 5756 5755 5735 5739 5753 5754 5752 5750 5746 5746 5747 5748 5746 5745 5743 5742 5741 5740 5738 5736 5734 5731 5727 5723 5721 5720 5718 5716 5714 5711 5709 5708 5705 5703 5701 5699 5697 5695 5694 5692
5720 5717 5723 5740 5741 5735 5734 5742 5743 5743 5743 5740 5738 5738 5738 5736 5734 5734 5732 5731 5730 5728 5726 5726 5724 5721 5716 5713 5713 5711 5709 5707 5705 5704 5703 5702 5698 5695 5693 5690 5688 5688 5686 5684
5719 5719 5724 5729 5729 5731 5733 5730 5731 5732 5732 5730 5728 5727 5727 5725 5724 5723 5722 5721 5720 5718 5716 5715 5713 5711 5706 5704 5703 5702 5699 5697 5696 5695 5694 5693 5691 5689 5686 5683 5683 5682 5680 5678
5708 5713 5716 5719 5721 5722 5723 5722 5723 5723 5722 5722 5718 5717 5716 5715 5714 5713 5712 5711 5710 5708 5706 5703 5703 5701 5699 5697 5694 5691 5689 5688 5687 5686 5685 5684 5682 5681 5679 5677 5675 5673 5671 5670
5695 5702 5704 5707 5709 5712 5713 5714 5714 5714 5714 5712 5709 5707 5706 5705 5704 5703 5702 5701 5700 5698 5695 5693 5692 5690 5689 5687 5685 5682 5680 5680 5679 5679 5678 5674 5672 5670 5669 5666 5664 5660 5661 5659
5689 5694 5694 5695 5702 5703 5702 5701 5702 5702 5701 5702 5700 5697 5697 5696 5695 5693 5692 5691 5690 5688 5686 5684 5682 5680 5680 5678 5676 5673 5672 5671 5670 5669 5667 5666 5663 5661 5657 5654 5651 5648 5646 5644
5686 5690 5690 5691 5694 5694 5693 5692 5693 5692 5691 5689 5689 5689 5687 5686 5685 5684 5682 5681 5679 5678 5676 5674 5673 5671 5670 5669 5667 5665 5663 5662 5661 5660 5658 5656 5655 5653 5650 5646 5643 5640 5637 5634
5678 5679 5678 5681 5682 5684 5684 5684 5684 5683 5682 5680 5679 5678 5677 5676 5675 5673 5672 5671 5670 5669 5667 5666 5664 5662 5661 5660 5658 5656 5655 5653 5651 5650 5649 5648 5646 5645 5643 5641 5639 5637 5631 5625
5671 5672 5672 5673 5674 5674 5675 5674 5672 5671 5671 5669 5669 5667 5666 5664 5663 5662 5662 5661 5660 5659 5657 5656 5654 5652 5651 5650 5648 5646 5646 5644 5642 5641 5640 5639 5637 5637 5636 5634 5632 5630 5627 5622
5662 5664 5664 5663 5663 5664 5665 5664 5662 5661 5660 5660 5659 5657 5657 5656 5654 5653 5652 5651 5649 5648 5647 5646 5644 5643 5643 5641 5639 5638 5636 5632 5630 5631 5631 5630 5629 5628 5627 5625 5624 5622 5620 5617
5652 5652 5653 5653 5654 5655 5656 5655 5654 5653 5652 5651 5650 5650 5648 5647 5645 5644 5643 5642 5641 5639 5638 5637 5635 5635 5634 5632 5631 5631 5630 5627 5622 5623 5623 5622 5621 5619 5618 5617 5615 5614 5613 5609
5648 5648 5648 5648 5647 5647 5647 5647 5646 5645 5644 5643 5643 5641 5639 5637 5636 5635 5634 5633 5632 5630 5630 5629 5627 5626 5625 5623 5622 5622 5621 5620 5618 5617 5616 5614 5613 5612 5610 5608 5607 5605 5604 5602
5640 5641 5641 5641 5641 5640 5640 5639 5638 5637 5636 5635 5634 5632 5631 5630 5629 5627 5627 5625 5623 5622 5621 5621 5616 5617 5617 5615 5612 5613 5613 5612 5610 5609 5607 5603 5604 5604 5602 5601 5599 5596 5595 5594
5631 5632 5632 5632 5633 5633 5632 5632 5631 5629 5628 5627 5625 5624 5622 5622 5622 5620 5619 5618 5618 5618 5615 5613 5611 5610 5609 5607 5603 5606 5605 5604 5602 5601 5599 5598 5597 5595 5594 5592 5591 5589 5587 5585
5621 5622 5622 5622 5623 5623 5624 5624 5623 5621 5620 5619 5618 5617 5616 5616 5615 5614 5613 5613 5612 5609 5608 5604 5604 5603 5602 5599 5595 5599 5598 5595 5593 5592 5590 5589 5588 5587 5585 5583 5582 5581 5579 5577
5612 5612 5613 5613 5613 5614 5615 5616 5616 5615 5614 5613 5612 5612 5611 5609 5609 5608 5606 5605 5605 5599 5600 5601 5599 5594 5592 5589 5592 5591 5589 5587 5585 5583 5582 5580 5579 5578 5576 5575 5573 5572 5570 5568
5603 5603 5603 5604 5604 5605 5606 5607 5607 5607 5607 5607 5606 5605 5605 5604 5605 5603 5601 5600 5599 5592 5593 5593 5587 5583 5580 5583 5584 5583 5580 5578 5576 5575 5573 5572 5570 5569 5568 5566 5565 5563 5562 5560
5594 5594 5595 5595 5596 5596 5596 5598 5599 5599 5600 5600 5600 5600 5599 5599 5598 5599 5596 5590 5587 5584 5586 5582 5576 5574 5571 5576 5576 5575 5572 5570 5568 5566 5565 5564 5563 5562 5560 5559 5557 5556 5554 5552
5586 5586 5586 5586 5587 5588 5589 5590 5591 5592 5593 5595 5595 5594 5594 5593 5591 5590 5587 5585 5579 5577 5578 5574 5569 5566 5567 5569 5569 5567 5565 5562 5560 5558 5557 5555 5554 5554 5552 5551 5550 5548 5547 5546
5579 5579 5580 5579 5580 5580 5583 5584 5585 5585 5586 5587 5587 5587 5586 5585 5582 5581 5579 5577 5574 5570 5569 5568 5565 5562 5563 5563 5562 5560 5558 5555 5553 5551 5549 5548 5547 5546 5545 5544 5542 5542 5540 5539
5574 5574 5573 5574 5574 5575 5576 5577 5577 5578 5578 5578 5578 5578 5577 5576 5574 5572 5571 5569 5567 5565 5563 5561 5560 5559 5558 5557 5555 5553 5551 5549 5547 5545 5544 5542 5540 5539 5538 5536 5535 5534 5533 5532